Tracking 19638 objects as of 19-Apr-2019
HD Live streaming from Space Station
objects crossing your sky now

SL-8 R/B

Track SL-8 R/B now!
10-day predictions


NORAD ID: 23774
Int'l Code: 1996-004B
Perigee: 952.2 km
Apogee: 1,014.7 km
Inclination: 83.0 °
Period: 104.6 minutes
Semi major axis: 7354 km
RCS: 7.3139 m2 (large)
Launch date: January 16, 1996
Source: Commonwealth of Independent States (former USSR) (CIS)
Launch site: PLESETSK MISSILE AND SPACE COMPLEX (PKMTR)

Note: This is a ROCKET BODY
aabbcc
Your satellite tracking list
Your tracking list is empty




NASA's NSSDC Master Catalog

Two Line Element Set (TLE):
1 23774U 96004B   19108.78038023 +.00000003 +00000-0 -11758-4 0  9992
2 23774 082.9809 225.8858 0042501 271.9060 087.7230 13.76506588167804
Source of the keplerian elements: AFSPC